This is the latest recevied weather packets stored in our database for station/object N9BSW. If no packets are shown the sender has not sent any weather packets the latest 10 day(s).
| Time | Temp. | Humidity | Pressure | Rain* | Wind** | Luminosity | Snow |
|---|---|---|---|---|---|---|---|
| 1777730996 | 8.89° C | 43% | 1019.6 hPa | 0 mm | - | 466 W/m² | - |
| 1777730695 | 9.44° C | 47% | 1019.5 hPa | 0 mm | - | 448 W/m² | - |
| 1777730390 | 9.44° C | 45% | 1019.5 hPa | 0 mm | - | 435 W/m² | - |
| 1777730087 | 9.44° C | 45% | 1019.5 hPa | 0 mm | - | 419 W/m² | - |
| 1777729783 | 8.33° C | 44% | 1019.7 hPa | 0 mm | - | 405 W/m² | - |
| 1777729481 | 8.33° C | 48% | 1019.7 hPa | 0 mm | - | 388 W/m² | - |
| 1777729177 | 8.33° C | 43% | 1019.5 hPa | 0 mm | - | 371 W/m² | - |
| 1777728874 | 8.33° C | 46% | 1019.6 hPa | 0 mm | - | 356 W/m² | - |
| 1777728571 | 8.89° C | 47% | 1019.7 hPa | 0 mm | - | 337 W/m² | - |
| 1777728268 | 9.44° C | 45% | 1019.6 hPa | 0 mm | - | 317 W/m² | - |
| 1777727965 | 8.33° C | 49% | 1019.6 hPa | 0 mm | - | 99 W/m² | - |
| 1777727661 | 8.33° C | 50% | 1019.4 hPa | 0 mm | - | 291 W/m² | - |
| 1777727359 | 7.78° C | 49% | 1019.5 hPa | 0 mm | - | 120 W/m² | - |
| 1777727056 | 7.22° C | 53% | 1019.6 hPa | 0 mm | - | 261 W/m² | - |
| 1777726753 | 7.22° C | 55% | 1019.4 hPa | 0 mm | - | 243 W/m² | - |
| 1777726451 | 6.67° C | 55% | 1019.1 hPa | 0 mm | - | 230 W/m² | - |
| 1777726147 | 6.11° C | 58% | 1019.2 hPa | 0 mm | - | 213 W/m² | - |
| 1777725844 | 6.67° C | 62% | 1019.1 hPa | 0 mm | - | 194 W/m² | - |
| 1777725542 | 6.11° C | 66% | 1019.3 hPa | 0 mm | - | 181 W/m² | - |
| 1777725239 | 5.56° C | 73% | 1019.4 hPa | 0 mm | - | 108 W/m² | - |
| 1777724936 | 5.56° C | 70% | 1019 hPa | 0 mm | - | 91 W/m² | - |
| 1777724632 | 5.56° C | 71% | 1019.2 hPa | 0 mm | - | 102 W/m² | - |
| 1777724330 | 5.56° C | 74% | 1019 hPa | 0 mm | - | 96 W/m² | - |
| 1777724027 | 5° C | 75% | 1019.1 hPa | 0 mm | - | 72 W/m² | - |
| 1777723725 | 5° C | 74% | 1018.8 hPa | 0 mm | - | 63 W/m² | - |
* Rain latest hour (hover to see other rain measurements)
** Current wind speed in m/s (hover to see current wind gust speed)